Starlink 11233

operational
NORAD ID: 61061 Int'l Des: 2024-164 Owner: SPXS Country: US Constellation: starlink
LEOCIRCULAR

Über Starlink 11233

Beschreibung wird geladen...

Live-Position

3D-Globus wird geladen...

Nächste Überflüge

Höhenverlauf

Altitude vs Time

uPlot chart will show altitude changes over time

Zweizeiliger Elementsatz

1 61061U 24164M 25306.01060261 -.00000824 00000-0 -19369-5 0 9992
2 61061 53.1596 220.8122 0001663 79.9303 280.1902 15.69709549 65366
Epoch: 2. Nov. 2025 • Age: 29 hours

Aktueller Status

Höhe 378.9 km
Geschwindigkeit 7.68 km/s
Subsatellitenpunkt -52.15°S, 24.53°E
Startdatum 13. Sept. 2024
Alter 1.1 years
Typ internet

Technische Details

Klassifizierung Payload
Masse 960.00 kg
Trockenmasse 910.00 kg
Gesamtmasse 960.00 kg
Länge 0.30 m
Durchmesser 4.10 m
Spannweite 29.00 m
Form Box + pan
Hersteller SPXS
Bus-Typ Starlink V2MD
Phasenstatus In Orbit
Besitzer/Staat SPXS/US

Große Konstellationen

Loading constellations...